CZ-6A DEB, 54479

Orbit data source: Space-Track

CZ-6A DEB, 54479 is space debris in SSO originally from a launch on Fri, 11 Nov 2022 UTC launched from the Taiyaun Space Center, China (TSC). Debris objects in space refer to the collection of defunct objects orbiting the Earth. Examples of debris include non-operational satellites, rocket bodies, and fragments generated from explosions, collisions, or faulty payload assembly.

Loading next visibility...
Identifier
54479, 2022-151HF
Orbit
SSO
Country
Flag of CNCN / PRC
Related business
Manufacturer
SAST
Mission
Spacecraft
Bus & Motor
Unknown
Mass
Unknown
Launch date (UTC)
2022-11-11 (4 years ago)
Launch vehicle
Unknown
Launch site
Taiyaun Space Center, China (TSC)
Object type
Payload
Rocket body
Debris
Shape & HBR
Unknown shape, 0.1 m
Radar Cross Section
Medium (>0.1 m² and <1 m²)

Expand to show TLE details & history
Last TLE update: 2 days ago

TLE from 2 days ago
0 CZ-6A DEB
1 54479U 22151HF  26171.09702759  .00007375  00000-0  13225-2 0  9993
2 54479  98.6293 229.4068 0077423 306.1224  53.2828 14.65125887190128
Epoch: 2026-06-20T02:19Z
TLE epoch observation values (Epoch: 2026-06-20T02:19:43.183Z)
Latitude
-0.00003°
Longitude
-73.83967°
Altitude
647.261 km
Speed
7.551 km/s
True Right ascension
15h 17m 37s
True Declination
0° 00' 00"
Sunlit
Object was in full shadow at epoch
Visualization orbit readout
Latitude
Unknown
Longitude
Unknown
Altitude
Unknown
Speed
Unknown
Apparent Right ascension
Unknown
Apparent Declination
Unknown
Sunlit
N/A
Visualization observer readout
Local Sidereal Time
21:52:39
Azimuth
Unknown
Elevation
Unknown
Doppler factor
Unknown
Orbital elements
Apogee altitude
728.364 km
Perigee altitude
619.168 km
Semi-major axis
7,051.903 km
Eccentricity
0.00774
Inclination
98.6293°
RAAN
229.4068°
Arg. of periapsis
306.1224°
True anomaly
53.9981°
Mean anomaly
53.2828°
Eccentric anomaly
53.64004°
Mean motion
3.66508 °/min
Orbital period
98.22 mins
BSTAR
0.0013225
Loading maneuver chart data...
Computing Atmospheric mass density...
Loading historical data...
Loading historical data...
Loading historical data...
Loading historical data...
Loading historical data...
Loading historical data...
Loading historical data...

Documentation

Showing up to 5 results
|